Lid_Strength_Index
-1 -1 -1 2 8 9 11 10 7 8 8 5 4 6 6 6 7 9 1 0 -0 -0 -1 -1 -1 -2 -2 -2 -2 -2 -2 -2 -2 -2 -2 -2 -2 -2 -2 -3 -2 -2 -2 -2 -2 -2 -2 -2 -2
-1 0 1 4 10 12 11 8 9 7 6 5 5 5 6 7 4 4 2 -0 -1 -1 -1 -1 -1 -1 -2 -2 -2 -2 -2 -2 -2 -2 -2 -2 -2 -2 -2 -2 -3 -2 -2 -2 -2 -2 -2 -2 -2
0 1 5 7 10 12 11 8 7 6 5 5 6 5 5 6 4 3 0 -0 -1 -1 -1 -1 -1 -1 -2 -2 -2 -2 -2 -3 -3 -2 -2 -2 -2 -2 -2 -2 -2 -2 -2 -2 -2 -2 -2 -2 -2
1 3 4 10 11 9 8 7 6 7 6 5 5 7 4 2 3 1 -0 -1 -0 -1 -1 -1 -1 -1 -2 -2 -2 -2 -2 -2 -3 -2 -2 -2 -2 -2 -2 -2 -2 -2 -2 -2 -2 -2 -2 -2 -2
1 4 10 11 11 9 7 6 6 7 6 6 6 7 6 3 1 0 0 -0 0 -0 -1 -1 -1 -1 -2 -2 -2 -2 -2 -2 -3 -3 -2 -2 -2 -2 -2 -2 -2 -2 -2 -2 -2 -2 -2 -2 -2
6 5 11 12 10 8 6 5 6 6 6 6 6 6 6 2 1 1 0 0 -0 -0 -1 -1 0 -1 -1 -2 -2 -2 -2 -2 -2 -3 -2 -2 -2 -2 -2 -2 -2 -2 -2 -2 -2 -2 -2 -2 -2
7 8 10 10 10 9 7 5 6 6 6 7 5 7 5 3 1 0 0 0 -0 -0 -0 -1 -1 -1 0 -1 -1 -1 -1 -2 -2 -2 -2 -2 -2 -2 -2 -2 -2 -2 -2 -2 -2 -2 -2 -2 -2
5 7 10 10 10 10 6 6 5 5 6 4 3 7 7 3 1 0 1 0 0 -0 -0 -0 -1 -1 -1 -2 1 0 -0 -1 -2 -2 -2 -1 -1 -1 -1 -1 -2 -2 -2 -2 -2 -2 -1 -1 -0
4 9 11 10 10 8 6 6 4 4 5 5 4 4 3 2 1 1 2 2 1 1 -0 -1 -1 -1 -1 -1 -0 1 1 -0 -0 -1 0 -0 -2 -2 -1 -1 -1 -2 -1 -1 -1 -1 -0 1 1
7 10 9 7 7 7 6 6 5 6 6 6 6 4 2 2 2 3 3 3 2 2 1 -0 -1 -1 -1 -1 -1 -1 -1 -2 -2 -2 -2 -2 -2 -2 -1 -0 -0 -1 -1 -1 -0 0 1 1 0
7 10 7 7 6 5 6 6 5 6 7 6 6 5 4 3 3 3 3 2 2 1 1 -0 -1 -1 -1 -1 -1 -1 -1 -1 -2 -2 -2 -2 -2 -2 -2 -2 -2 -1 1 0 0 0 -0 0 1
9 7 7 6 5 6 7 5 6 5 5 5 4 4 4 4 4 3 3 2 2 2 1 0 -1 -1 -1 -1 -1 -1 -1 -1 -1 -2 -2 -2 -1 -1 -1 -1 -1 -1 -0 -0 0 0 1 1 1
8 7 6 6 6 6 6 7 6 6 4 4 4 4 4 4 3 3 2 2 2 2 1 1 0 -0 -1 -1 -1 -1 -1 -1 -1 -1 -2 -2 -1 -1 -1 -1 -1 -1 -1 0 1 1 2 2 2
9 8 7 6 7 6 8 7 6 5 4 4 4 4 4 4 4 3 2 2 2 2 1 1 1 0 -1 -1 -1 -1 -1 -1 -1 -1 -1 -2 -1 -1 -1 -1 -1 -1 -1 0 1 2 2 3 3
9 10 8 7 7 7 6 9 8 5 4 5 4 5 4 4 3 3 3 2 2 1 1 1 0 0 -0 -0 -1 -1 -1 -1 -1 -1 -1 -2 -1 -1 -1 -1 -1 -1 -1 1 1 2 3 4 5
12 11 13 10 7 7 7 11 6 4 5 5 5 4 4 4 4 3 2 2 1 1 1 2 1 0 -0 -0 -1 -1 -1 -1 -1 -1 -1 -1 -1 -1 -1 -1 -1 -1 0 1 2 2 3 4 5
12 15 13 12 8 7 8 10 7 5 5 6 5 4 4 4 4 3 2 2 1 1 1 1 1 1 1 -0 -1 -1 -1 -1 -1 -1 -1 -1 -1 -1 -1 -1 -1 -0 0 1 2 2 3 5 6
15 15 14 14 9 8 11 10 7 6 6 6 5 5 4 4 4 3 2 2 1 1 1 1 1 1 1 0 -0 -0 -0 -1 -1 -1 -1 -1 -1 -1 -1 -1 -1 -0 1 2 2 3 4 4 6
13 14 15 13 10 11 10 9 8 6 6 6 6 5 5 4 3 3 2 2 2 1 1 1 1 1 0 1 1 1 1 0 -0 -1 -1 -1 -1 -1 -1 -1 -0 -0 1 2 2 4 5 6 7
12 13 13 12 11 11 12 13 11 8 7 6 6 6 5 4 4 3 3 2 2 2 1 1 1 1 1 1 0 0 0 0 -0 -1 -1 -1 -1 -1 -1 -0 0 0 1 2 3 5 6 7 7
12 13 13 13 12 11 12 13 12 10 9 8 6 5 5 5 4 4 3 3 2 2 2 2 1 1 1 0 0 0 0 0 1 0 0 -1 -1 -1 -1 -1 0 0 1 2 3 5 6 7 8
14 11 12 13 14 16 12 17 12 10 10 9 9 7 5 4 4 4 4 3 3 2 1 1 1 1 1 0 1 1 2 2 1 1 0 -0 -1 -1 -1 -0 0 0 1 2 3 4 5 6 9
13 11 12 12 14 14 14 16 14 11 11 10 8 6 5 4 4 4 4 3 2 2 2 1 1 1 1 1 1 1 2 1 1 0 1 0 -0 -1 -1 -0 0 1 1 2 3 4 5 6 8
11 12 13 13 14 19 15 16 15 13 11 9 8 8 5 4 4 3 3 3 3 2 2 1 1 1 1 1 1 1 2 1 2 1 1 1 0 -0 -0 0 0 1 1 2 3 3 4 5 6
12 14 18 19 19 19 14 15 14 11 9 8 8 7 6 4 4 4 3 4 3 3 2 2 2 2 1 1 1 1 1 1 1 1 1 1 1 1 0 -0 1 2 2 2 2 3 4 5 7
12 13 17 21 20 17 13 16 13 8 7 7 6 6 6 5 4 4 3 3 3 3 2 2 2 2 1 1 1 1 1 1 1 1 1 1 1 1 -0 0 1 2 3 3 2 3 3 4 5
13 15 11 16 15 17 14 11 8 8 7 7 7 7 6 6 5 4 3 3 3 3 3 2 2 2 2 1 1 1 1 1 1 1 0 1 0 1 1 -0 1 1 2 3 3 3 4 5 5
11 10 16 15 20 19 15 16 16 12 10 9 9 8 8 6 6 6 5 3 3 2 2 2 2 2 2 1 1 1 1 1 1 1 1 1 1 1 1 2 1 1 2 3 4 4 4 5 5
13 14 14 13 15 18 19 17 12 11 10 9 9 10 10 8 7 6 4 3 3 2 2 2 2 2 2 1 1 1 1 1 1 1 1 1 1 1 2 2 2 2 3 4 5 5 5 6 6
12 14 14 17 18 16 17 18 12 11 11 11 12 12 10 9 10 9 7 5 4 3 3 2 2 2 2 1 1 1 1 1 1 1 1 1 1 1 2 2 3 3 4 5 6 6 7 7 7